Location: Klein M�hlingen
(51.9472°N, 11.7453°E)
Time: 17:16:12
(UTC+00:00)

Cosmos 1408 - Pass Details

Date: 09 April 2020
Orbit: 470 x 494 km, 82.6° (Epoch: 28 May)

Event Time Altitude Azimuth Distance (km) Brightness Sun altitude
Rises 20:40:52 0° 345° (NNW) 2,565 7.3 -21.7°
Reaches altitude 10° 20:43:00 10° 341° (NNW) 1,683 6.2 -21.9°
Maximum altitude 20:46:35 54° 264° (W) 603 3.1 -22.2°
Enters shadow 20:46:54 52° 243° (WSW) 617 3.0 -22.3°
